Weather History for Klamath Falls, OR

Change the Weather History Date:

Sunday, May 18, 2014

  Actual Average Record
Temperature  
Mean Temperature 48 °F 52 °F  
Max Temperature 59 °F 66 °F 89 °F (1954)
Min Temperature 37 °F 37 °F 23 °F (2003)
Degree Days  
Heating Degree Days 17 14  
Month to date heating degree days 240 280  
Since 1 July heating degree days 6327 6599  
Cooling Degree Days 0 0  
Month to date cooling degree days 0 0  
Year to date cooling degree days 0 0  
Moisture  
Dew Point 37 °F    
Average Humidity 67    
Maximum Humidity 85    
Minimum Humidity 43    
Precipitation  
Precipitation 0.10 in 0.04 in 0.77 in (1957)
Month to date precipitation 0.62 1.07  
Year to date precipitation 5.41 7.48  
Sea Level Pressure  
Sea Level Pressure 29.89 in    
Wind  
Wind Speed 9 mph (WNW)    
Max Wind Speed 31 mph    
Max Gust Speed 36 mph    
Visibility 9 miles    
Events Rain    
T = Trace of Precipitation, MM = Missing Value Source: NWS Daily Summary

Daily Weather History Graph

Daily Weather History Graph

Search for Another Location

Airport:

Trip Planner

Search our weather history database for the weather conditions in past years. The results will help you decide how hot, cold, wet, or windy it might be!

Date:

Astronomy

May. 18, 2014 Rise Set
Actual Time 5:43 AM PDT 8:24 PM PDT
Civil Twilight 5:10 AM PDT 8:56 PM PDT
Nautical Twilight 4:30 AM PDT 9:37 PM PDT
Astronomical Twilight 3:43 AM PDT 10:23 PM PDT
Moon No Moon Rise 9:38 AM PDT (5/18)
Length of Visible Light 15h 45m
Length of Day
14h 41m
Waning Gibbous, 80% of the Moon is Illuminated
May 18
Waning Gibbous
May 21
Last Quarter
May 28
New
Jun 5
First Quarter
Jun 12
Full

Hourly Weather History & Observations

Time (PDT) Temp. Windchill Dew Point Humidity Pressure Visibility Wind Dir Wind Speed Gust Speed Precip Events Conditions
12:53 AM 48.0 °F - 36.0 °F 63% 29.83 in 10.0 mi West 11.5 mph - N/A   Scattered Clouds
1:53 AM 45.0 °F 39.7 °F 36.0 °F 71% 29.84 in 10.0 mi West 10.4 mph - N/A   Clear
2:53 AM 42.1 °F - 35.1 °F 76% 29.84 in 10.0 mi Calm Calm - N/A   Clear
3:53 AM 43.0 °F 38.2 °F 36.0 °F 76% 29.85 in 10.0 mi West 8.1 mph - N/A   Mostly Cloudy
4:53 AM 42.1 °F 36.6 °F 36.0 °F 79% 29.84 in 10.0 mi West 9.2 mph - N/A   Clear
5:53 AM 39.9 °F - 35.1 °F 83% 29.85 in 10.0 mi Calm Calm - N/A   Clear
6:53 AM 45.0 °F 40.1 °F 37.9 °F 76% 29.86 in 10.0 mi West 9.2 mph - N/A   Overcast
7:53 AM 46.9 °F - 37.0 °F 68% 29.88 in 10.0 mi West 11.5 mph - 0.00 in   Mostly Cloudy
8:53 AM 48.9 °F - 35.1 °F 59% 29.89 in 10.0 mi West 10.4 mph - N/A   Mostly Cloudy
9:53 AM 51.1 °F - 34.0 °F 52% 29.87 in 10.0 mi West 9.2 mph 20.7 mph N/A   Overcast
10:53 AM 54.0 °F - 33.1 °F 45% 29.86 in 10.0 mi West 8.1 mph - N/A   Mostly Cloudy
11:53 AM 52.0 °F - 36.0 °F 54% 29.89 in 10.0 mi SW 12.7 mph - 0.00 in Rain Light Rain
12:53 PM 55.9 °F - 35.1 °F 45% 29.86 in 10.0 mi WNW 8.1 mph - 0.00 in   Scattered Clouds
1:53 PM 57.0 °F - 35.1 °F 44% 29.87 in 10.0 mi NW 11.5 mph - 0.00 in   Scattered Clouds
2:53 PM 48.9 °F - 39.9 °F 71% 29.92 in 9.0 mi West 12.7 mph 26.5 mph 0.00 in Rain Light Rain
3:53 PM 53.1 °F - 37.9 °F 57% 29.90 in 10.0 mi WNW 18.4 mph 25.3 mph 0.01 in   Mostly Cloudy
4:17 PM 45.0 °F 37.9 °F 39.9 °F 82% 29.95 in 2.0 mi NW 16.1 mph - 0.07 in Rain Heavy Rain
4:21 PM 46.0 °F 39.3 °F 41.0 °F 83% 29.94 in 2.5 mi NNW 16.1 mph - 0.09 in Rain Heavy Rain
4:31 PM 48.9 °F - 42.1 °F 77% 29.93 in 7.0 mi WNW 8.1 mph - 0.09 in Rain Light Rain
4:50 PM 50.0 °F - 41.0 °F 71% 29.93 in 10.0 mi NNW 9.2 mph - 0.09 in   Mostly Cloudy
4:53 PM 50.0 °F - 41.0 °F 71% 29.91 in 10.0 mi NW 9.2 mph - 0.09 in   Scattered Clouds
5:53 PM 53.1 °F - 37.9 °F 57% 29.89 in 10.0 mi WNW 17.3 mph - N/A   Unknown
6:53 PM 52.0 °F - 37.0 °F 57% 29.89 in 10.0 mi WNW 15.0 mph - N/A   Clear
7:53 PM 48.9 °F - 37.0 °F 64% 29.90 in 10.0 mi WNW 12.7 mph - N/A   Mostly Cloudy
8:53 PM 46.0 °F 41.0 °F 37.0 °F 71% 29.91 in 10.0 mi West 10.4 mph - N/A   Mostly Cloudy
9:53 PM 44.1 °F 42.5 °F 37.0 °F 76% 29.92 in 10.0 mi Variable 3.5 mph - N/A   Clear
10:53 PM 42.1 °F 37.7 °F 36.0 °F 79% 29.93 in 10.0 mi SSW 6.9 mph - N/A   Clear
11:53 PM 41.0 °F - 36.0 °F 82% 29.94 in 10.0 mi Calm Calm - N/A   Partly Cloudy